Theta_e
302 306 307 305 305 305 298 297 294 299 297 301 307 315 317 319 319 316 319 326 327 331 332 334 340 341 344 345 346 346 345 346 345 347 347 348 347 346 345 346 348 347 345 347
299 307 307 304 306 307 306 304 302 304 300 306 310 319 319 320 318 318 323 328 329 332 332 335 338 342 344 345 347 348 346 344 348 347 347 346 346 346 347 348 348 347 346 345
291 304 304 300 303 304 305 307 306 301 307 309 310 316 319 319 321 323 328 330 331 333 334 336 335 340 343 344 345 344 344 343 346 348 348 346 346 344 344 344 344 345 345 345
289 295 290 301 308 310 306 308 313 313 314 314 315 317 321 324 324 324 330 331 332 334 335 336 336 340 342 343 343 342 342 346 346 345 346 346 345 344 344 345 345 346 346 345
288 290 296 300 304 306 303 305 318 317 320 318 319 318 317 327 322 325 327 332 337 337 340 340 340 342 345 344 343 342 342 346 346 346 345 346 344 343 343 342 343 343 345 344
289 287 286 297 312 317 309 297 315 317 318 318 319 308 313 325 326 327 331 334 338 342 343 342 344 345 344 342 342 341 343 346 349 348 347 345 343 342 344 343 342 342 341 342
289 289 293 308 313 315 297 298 314 316 316 317 313 317 319 327 327 330 332 338 341 342 342 343 345 345 342 342 341 343 346 347 348 347 346 345 345 343 341 339 339 338 338 337
292 290 289 312 312 303 308 311 314 315 314 313 316 323 321 326 326 328 332 335 341 340 341 343 345 345 343 343 345 347 347 347 346 346 348 347 342 338 338 338 335 331 330 331
299 297 305 311 313 316 315 313 314 314 316 315 315 322 325 325 326 329 331 330 339 343 342 344 345 347 344 345 348 348 346 344 343 343 343 341 337 335 334 333 331 330 331 330
300 303 306 309 315 319 317 314 318 319 318 317 316 321 323 323 323 326 330 329 333 342 343 342 346 347 347 348 347 344 340 339 338 336 336 337 336 336 334 332 332 334 332 325
299 305 307 310 315 317 318 318 319 320 320 318 318 316 324 325 324 319 325 330 329 337 341 344 345 344 346 343 343 341 339 337 336 335 336 337 334 331 335 335 332 329 327 325
294 304 307 310 317 319 318 317 318 317 317 320 318 315 318 324 325 320 324 329 331 335 340 342 344 342 341 341 340 338 336 336 336 337 336 336 335 329 309 308 305 309 314 318
299 304 308 313 315 316 317 317 317 317 318 318 319 317 317 323 325 323 326 329 329 331 342 341 342 342 341 341 339 337 336 335 335 333 331 333 332 330 328 317 307 304 304 302
306 306 306 312 310 315 315 318 318 318 319 319 317 317 318 324 323 323 327 328 331 331 334 334 336 340 342 340 338 335 332 324 329 327 324 323 321 321 322 321 319 318 306 306
306 307 307 308 312 315 318 318 316 314 316 317 318 317 322 328 324 327 328 330 330 331 334 334 331 333 338 337 335 330 327 325 323 320 322 322 322 319 318 316 316 319 311 307
309 313 313 312 311 313 316 318 314 314 317 315 315 317 323 330 323 323 328 330 327 328 328 328 331 334 336 335 333 329 326 322 323 319 318 318 318 319 319 319 320 320 317 316
305 307 311 312 313 313 314 316 316 317 316 316 317 322 325 322 322 320 322 327 328 327 332 331 333 334 334 336 333 329 327 327 323 319 320 319 320 320 318 317 316 318 320 317
309 311 314 313 315 316 319 317 315 315 316 318 323 328 327 320 318 320 322 322 323 325 326 328 330 331 330 333 331 329 325 323 322 321 320 320 318 317 318 318 317 318 315 312
310 310 312 314 315 317 319 319 314 315 318 321 328 326 326 326 323 322 324 322 321 321 326 328 327 328 333 333 332 329 327 323 322 321 320 318 317 317 316 317 318 318 316 315
310 311 312 315 317 319 318 319 321 319 320 321 327 324 323 324 323 325 325 322 323 327 330 325 328 329 334 334 332 326 325 325 322 321 319 318 318 318 318 313 318 318 318 317
309 310 312 314 315 318 320 320 322 320 320 320 325 323 319 324 324 328 326 324 325 327 328 329 330 330 331 330 329 325 324 322 321 321 319 318 317 319 317 319 319 319 319 318
310 311 314 314 315 316 318 319 320 322 321 319 323 323 320 320 321 320 321 321 323 318 325 326 326 328 330 329 326 322 321 321 321 322 320 319 319 318 318 318 318 319 319 318
319 316 317 317 317 318 319 319 320 322 320 319 323 321 320 320 324 320 317 320 324 321 327 327 324 323 323 328 327 324 323 322 321 320 319 319 320 320 319 318 318 319 317 318
315 315 317 319 318 318 319 320 320 319 319 320 326 324 320 319 320 321 321 319 317 318 326 327 324 320 324 329 327 325 324 323 321 319 318 312 320 320 320 318 319 321 318 312
317 319 319 318 317 317 318 320 318 322 320 319 321 324 325 323 322 323 323 323 315 320 326 320 319 320 329 328 328 328 325 323 320 318 318 317 317 318 319 320 323 322 321 317
314 315 317 318 319 319 320 321 321 324 323 323 325 327 329 328 328 325 325 322 324 324 325 323 326 330 330 328 328 326 323 322 318 317 317 317 317 318 319 322 322 321 321 317
314 311 318 319 318 316 316 316 321 321 322 324 324 326 328 330 326 325 323 325 326 327 324 324 325 325 327 327 325 324 323 321 316 319 318 317 316 315 316 319 321 322 319 316
Wind_Speed
5 9 7 6 7 9 6 6 4 10 6 9 9 15 18 13 6 4 9 10 18 18 17 13 13 14 13 13 14 14 13 11 11 9 9 8 7 7 6 6 7 7 7 6
6 6 8 16 5 7 8 9 5 6 6 2 8 3 7 15 12 8 7 9 14 17 16 17 16 16 14 13 14 13 12 12 11 9 9 9 7 7 6 7 6 6 6 6
6 3 10 12 1 4 3 7 7 7 12 9 5 10 17 10 6 6 8 11 12 13 15 15 15 15 14 13 11 12 11 8 8 9 9 8 7 6 6 6 5 5 6 6
6 1 8 5 2 2 4 5 13 13 15 8 6 4 9 4 13 12 10 17 13 13 12 9 8 8 8 9 11 11 9 8 7 8 8 6 6 6 5 4 5 4 5 5
4 5 12 14 7 6 3 4 14 12 17 9 3 6 7 8 5 2 7 7 13 14 13 10 12 10 10 9 9 8 8 8 8 7 7 6 6 6 4 4 4 4 3 4
3 4 7 3 2 6 3 4 14 15 14 15 17 4 4 7 5 2 6 9 11 12 13 13 11 12 11 8 7 8 8 8 7 7 6 6 6 6 4 3 4 4 4 6
5 6 5 5 11 5 2 6 7 11 14 16 10 13 6 10 8 5 4 13 15 16 16 13 12 13 11 9 9 7 7 7 7 7 7 6 6 3 4 4 4 4 4 4
3 4 4 11 5 1 1 2 2 3 8 13 13 14 2 8 8 5 5 6 13 13 11 12 13 13 10 10 8 7 7 7 6 6 5 5 7 3 3 5 4 4 3 3
1 5 5 6 5 5 5 5 2 4 7 8 15 5 6 10 10 9 8 8 5 12 10 11 13 13 12 8 9 9 7 6 5 6 6 6 6 6 4 4 3 4 3 1
3 5 8 8 8 6 6 5 4 4 2 9 11 11 2 12 16 12 7 7 3 7 11 10 9 11 11 9 8 9 8 7 7 7 5 5 4 4 4 3 3 4 3 3
6 10 15 14 13 8 8 8 5 6 3 5 8 18 8 5 8 7 4 5 6 6 8 12 9 8 8 8 9 9 8 6 6 5 6 4 3 2 3 4 5 5 5 5
7 7 5 9 6 3 6 11 8 7 6 3 3 13 14 14 8 5 4 3 5 4 6 6 10 8 8 9 10 9 6 5 5 4 4 4 4 3 7 5 7 4 8 7
7 7 11 12 10 7 11 13 9 10 9 2 10 12 16 12 8 8 5 3 3 7 4 5 10 10 9 9 9 8 7 6 4 4 4 4 3 4 4 2 6 6 5 4
15 12 10 7 8 11 12 16 5 7 3 6 9 16 14 13 5 10 9 4 7 8 2 13 10 6 8 9 9 7 6 8 5 5 4 3 3 3 3 4 3 3 1 3
8 9 13 14 10 15 8 12 9 8 8 8 6 9 11 7 7 6 7 10 9 8 4 10 10 11 5 8 8 8 6 5 5 4 3 4 4 3 3 2 3 2 2 1
16 11 9 8 10 11 12 10 9 12 7 9 7 12 9 3 4 5 7 9 12 9 10 2 11 8 8 5 8 6 6 9 6 5 4 3 2 1 2 1 2 3 3 4
12 15 13 12 7 4 12 12 11 11 4 8 9 7 1 2 2 5 5 7 9 11 24 24 20 2 8 11 7 5 4 5 7 4 4 3 2 1 2 2 2 3 4 5
9 10 7 7 12 6 5 6 8 8 9 8 7 6 6 7 8 7 7 6 6 8 7 10 5 3 7 13 8 5 5 5 5 5 4 4 3 3 3 2 2 3 2 3
11 10 12 11 10 7 6 5 5 6 6 3 6 6 7 7 6 6 5 8 5 6 6 7 15 11 14 19 14 5 5 5 5 4 5 5 3 4 3 3 3 3 4 4
12 11 10 11 8 7 7 7 6 2 5 4 6 5 5 5 4 8 7 10 12 10 17 7 2 7 9 10 8 3 5 6 6 5 5 5 5 5 4 3 5 4 4 4
8 9 9 8 7 7 8 7 5 2 8 8 7 8 8 7 6 8 12 9 10 10 13 22 10 8 6 5 6 5 5 5 5 6 5 5 4 4 5 5 4 4 4 4
6 7 8 8 7 7 7 7 7 6 9 7 4 6 7 7 7 4 2 3 2 7 8 11 18 22 11 8 5 4 2 2 4 4 4 4 4 5 5 5 5 5 4 4
7 8 8 7 7 7 8 8 8 6 7 7 7 8 7 5 8 8 4 3 6 8 5 9 9 8 6 3 4 5 4 5 5 5 4 4 4 5 5 5 4 5 5 4
9 6 8 7 5 6 8 7 5 6 5 5 6 7 5 3 3 4 5 9 14 11 8 7 5 5 8 3 3 5 6 5 5 4 5 5 3 3 4 4 4 4 4 3
10 10 5 6 5 1 2 4 4 5 3 5 4 5 6 3 5 6 5 7 11 10 8 9 11 12 5 5 5 3 5 4 4 5 4 3 1 2 4 4 4 3 3 3
10 8 6 5 4 3 2 4 4 5 4 2 2 1 3 0 3 4 5 7 8 9 7 5 5 8 6 6 5 7 6 6 5 5 5 3 2 1 2 3 3 3 3 3
7 8 7 6 4 5 5 4 4 4 4 5 3 3 4 5 3 3 5 5 4 4 5 5 5 5 4 5 7 8 7 6 7 6 5 5 3 1 1 1 2 2 3 3
Wind_Direction
281 276 325 327 344 331 317 235 175 282 200 265 241 200 202 200 182 238 184 171 171 176 173 164 170 170 171 176 179 180 181 184 200 188 193 194 194 211 210 209 210 204 202 210
305 307 329 313 275 265 273 288 285 310 290 288 323 280 207 201 182 193 196 172 164 167 162 165 167 172 173 179 183 175 182 189 197 184 191 195 195 209 204 213 207 187 189 199
258 343 330 297 149 94 344 21 331 9 293 291 281 194 225 207 189 175 163 168 152 167 168 168 166 161 173 180 169 177 182 179 178 179 196 198 188 195 206 205 198 188 195 196
253 190 243 253 301 341 6 3 8 338 334 303 277 198 196 216 167 160 159 171 165 162 165 167 149 136 132 157 172 177 178 167 171 176 180 183 183 187 192 179 178 174 193 201
200 203 273 291 310 310 45 17 12 353 352 337 7 36 19 356 335 144 135 168 161 162 156 155 155 145 149 156 163 169 180 175 179 175 175 176 181 183 170 176 183 187 200 223
186 206 243 334 59 302 194 270 349 354 355 358 321 82 251 290 302 252 153 145 149 160 144 151 153 148 147 150 154 175 177 178 176 175 167 175 183 174 166 172 192 181 212 223
249 241 270 357 308 307 170 282 327 358 344 346 346 296 188 173 241 273 284 160 164 160 155 161 148 147 153 152 177 181 168 164 170 167 169 171 168 165 170 176 180 211 223 245
327 226 282 353 323 55 95 278 253 308 318 335 330 303 306 265 192 221 203 109 167 151 158 155 154 151 156 173 171 160 160 167 171 167 159 154 162 164 177 180 197 218 241 289
213 252 270 294 238 220 183 202 241 274 308 324 334 273 303 317 288 215 165 127 126 148 148 153 156 160 163 181 159 154 148 159 163 160 159 158 152 174 184 195 214 246 233 219
357 304 268 276 265 228 206 230 214 233 304 328 327 328 266 265 289 312 1 29 54 117 140 139 146 159 162 151 147 139 142 148 150 145 161 176 188 189 192 201 217 251 207 180
250 262 275 285 238 217 215 238 219 268 229 274 316 320 292 218 269 308 8 24 357 127 161 152 141 134 130 135 142 143 138 145 161 170 178 204 213 213 226 232 194 194 200 171
226 254 216 273 273 207 231 254 209 202 265 273 277 296 303 272 234 246 296 20 320 15 142 156 138 141 142 144 139 141 153 170 181 174 194 212 200 202 69 39 11 301 175 158
233 272 275 262 260 241 224 243 263 199 195 198 296 287 289 268 222 205 229 173 63 10 160 153 151 150 162 151 140 154 164 182 184 181 196 216 197 200 231 22 51 26 356 153
262 254 284 229 242 240 244 264 237 252 247 204 223 261 284 245 209 204 192 174 77 53 286 59 358 182 161 150 141 162 170 178 173 174 174 173 169 181 170 179 217 254 230 351
291 261 247 261 257 254 230 250 279 283 239 241 235 265 288 239 226 227 157 149 123 94 100 51 15 334 269 148 145 152 163 169 157 157 161 177 168 179 194 182 218 202 102 66
322 321 339 325 310 240 225 224 223 261 268 285 295 298 278 245 144 161 157 143 127 126 95 215 261 289 317 264 148 157 173 163 158 152 144 161 175 244 282 220 196 177 194 203
326 334 338 339 317 282 217 218 217 237 203 240 276 282 193 244 180 140 124 158 168 159 165 193 199 227 3 293 179 172 172 176 155 133 144 144 140 118 153 151 176 213 201 184
270 271 261 255 293 300 316 224 224 235 240 254 215 185 172 199 211 185 163 106 92 106 104 95 87 18 324 303 241 176 177 167 159 166 147 140 155 150 172 160 157 161 171 157
274 270 278 277 270 272 283 297 248 246 264 239 156 177 192 214 218 224 98 95 131 124 115 78 37 4 265 255 235 184 175 166 164 154 151 156 165 176 178 151 172 180 195 181
261 262 262 268 269 244 266 264 266 304 308 241 143 162 157 200 211 204 177 173 191 189 138 102 21 329 274 211 197 159 171 173 167 169 161 174 173 167 175 180 171 194 200 211
256 262 264 272 263 271 278 265 251 12 303 261 174 192 183 190 189 189 194 202 200 186 145 137 149 263 284 216 153 168 177 173 170 184 187 173 159 166 177 188 194 205 197 194
250 248 257 248 250 263 258 258 224 218 248 256 221 169 165 176 168 142 119 210 335 190 152 156 163 189 228 194 151 156 172 178 179 173 159 160 160 164 187 194 201 199 190 199
302 249 241 234 235 248 272 260 245 223 238 238 187 197 198 166 168 168 193 184 156 182 179 199 218 195 172 167 159 155 120 135 134 138 152 149 158 174 191 208 206 183 160 180
321 305 258 230 226 249 266 274 251 252 221 185 183 198 175 169 142 160 162 153 152 163 178 184 203 153 121 153 141 131 135 150 138 123 103 134 163 186 194 178 169 164 139 177
349 349 19 85 103 124 349 5 45 12 312 242 208 174 183 187 185 202 157 153 156 167 180 196 178 153 146 156 112 125 126 133 125 119 108 108 170 206 183 176 162 155 162 191
339 338 326 15 58 76 81 75 82 39 357 53 40 100 75 118 227 121 152 179 165 157 148 152 170 144 159 141 155 152 157 160 141 125 126 123 127 133 182 153 138 156 187 206
341 351 359 15 27 25 26 16 74 36 39 40 67 89 116 91 108 149 141 131 139 134 136 143 152 160 178 141 138 168 171 149 145 144 152 148 147 180 185 111 132 180 186 208